contact:dominique.lefevre@mio.osupytheas.fr, maurice.libes@osupytheas.fr, didier.mallarino@osupytheas.fr
Project:EMSO http://www.emso-fr.org/EMSO-France
Depth: 2436.0 m
Title:EMSO Ligure Ouest : Data MII capteur AQUADOPP
Date,Latitude,Longitude,X_East,Y_North,Z_Up,Amplitude_X,Amplitude_Y,Amplitude_Z,Batterie,SoundSpeed,Heading,Pitch,Roll,Pressure,TIS,Speed,Direction
, degrees North, degrees East, m.s-1, m.s-1,m.s-1, 1, 1, 1, Volt, m.s-1, degree, degree, degree, dbar, degree_C, m.s-1, degree
2023-04-16T00:04:03,42.805,6.029,0.016,-0.001,-0.026,103.0,102.0,101.0,13.4,1505.2,327.0,-0.8,1.8,2471.337,13.28,0.016,93.6
2023-04-16T00:07:03,42.805,6.029,0.047,-0.001,-0.029,103.0,103.0,101.0,13.3,1505.2,316.8,-0.8,1.8,2471.298,13.28,0.047,91.2
2023-04-16T00:10:03,42.805,6.029,0.011,-0.003,-0.007,102.0,103.0,101.0,13.4,1505.2,328.1,-0.8,1.8,2471.27,13.29,0.011,105.3
2023-04-16T00:13:03,42.805,6.029,0.016,0.0,-0.015,103.0,102.0,102.0,13.3,1505.2,330.7,-0.8,1.8,2471.271,13.29,0.016,90.0
2023-04-16T00:16:03,42.805,6.029,0.033,0.005,-0.011,103.0,105.0,101.0,13.4,1505.2,340.0,-0.8,1.8,2471.27,13.29,0.033,81.4
2023-04-16T00:19:03,42.805,6.029,0.009,0.018,0.012,101.0,103.0,103.0,13.3,1505.2,320.1,-0.7,1.8,2471.223,13.29,0.02,26.6
2023-04-16T00:22:03,42.805,6.029,0.032,0.009,0.01,102.0,102.0,101.0,13.4,1505.2,319.5,-0.8,1.8,2471.306,13.29,0.033,74.3
2023-04-16T00:25:03,42.805,6.029,0.011,-0.015,-0.015,103.0,101.0,102.0,13.4,1505.2,330.2,-0.7,1.8,2471.273,13.29,0.018,143.7
2023-04-16T00:28:03,42.805,6.029,0.025,0.012,0.0,104.0,104.0,101.0,13.4,1505.2,327.0,-0.8,1.8,2471.248,13.29,0.027,64.4
2023-04-16T00:31:03,42.805,6.029,0.008,-0.005,-0.03,103.0,102.0,101.0,13.4,1505.2,343.9,-0.8,1.8,2471.266,13.29,0.009,122.0
2023-04-16T00:34:03,42.805,6.029,0.029,0.008,-0.011,103.0,104.0,101.0,13.4,1505.2,325.4,-0.8,1.8,2471.275,13.29,0.03,74.6
2023-04-16T00:37:03,42.805,6.029,0.016,-0.011,0.002,103.0,103.0,102.0,13.4,1505.2,342.9,-0.8,1.8,2471.273,13.29,0.019,124.5
2023-04-16T00:40:03,42.805,6.029,0.017,-0.011,-0.04,103.0,103.0,102.0,13.4,1505.2,322.5,-0.8,1.9,2471.279,13.29,0.02,122.9
2023-04-16T00:43:03,42.805,6.029,0.029,-0.008,0.002,103.0,104.0,101.0,13.4,1505.2,327.5,-0.8,1.8,2471.278,13.29,0.03,105.4
2023-04-16T00:46:03,42.805,6.029,0.014,-0.005,-0.031,103.0,104.0,101.0,13.3,1505.2,341.5,-0.8,1.8,2471.257,13.29,0.014,109.6
2023-04-16T00:49:03,42.805,6.029,0.001,0.02,-0.033,103.0,104.0,103.0,13.3,1505.2,327.0,-0.8,1.8,2471.282,13.29,0.02,2.9
2023-04-16T00:52:03,42.805,6.029,0.016,-0.006,-0.022,104.0,102.0,102.0,13.4,1505.2,326.0,-0.7,1.8,2471.272,13.29,0.017,110.6
2023-04-16T00:55:03,42.805,6.029,0.015,-0.026,-0.006,106.0,103.0,100.0,13.3,1505.2,324.2,-0.8,1.8,2471.265,13.29,0.03,150.0
2023-04-16T00:58:03,42.805,6.029,0.031,0.008,0.018,103.0,103.0,101.0,13.4,1505.2,319.2,-0.8,1.8,2471.292,13.29,0.032,75.5
2023-04-16T01:04:03,42.805,6.029,0.026,-0.017,-0.019,106.0,104.0,101.0,13.4,1505.2,336.5,-0.7,1.8,2471.357,13.28,0.031,123.2
2023-04-16T01:07:03,42.805,6.029,0.004,-0.007,-0.061,105.0,103.0,102.0,13.4,1505.2,338.2,-0.8,1.8,2471.355,13.28,0.008,150.3
2023-04-16T01:10:03,42.805,6.029,0.031,-0.009,-0.018,103.0,102.0,102.0,13.4,1505.2,331.9,-0.8,1.8,2471.318,13.29,0.032,106.2
2023-04-16T01:13:03,42.805,6.029,0.021,-0.005,-0.003,103.0,104.0,101.0,13.4,1505.2,319.8,-0.7,1.8,2471.336,13.29,0.021,103.4
2023-04-16T01:16:03,42.805,6.029,0.037,-0.003,-0.019,103.0,103.0,101.0,13.4,1505.2,326.0,-0.8,1.8,2471.293,13.29,0.037,94.6
2023-04-16T01:19:03,42.805,6.029,0.023,-0.008,-0.043,103.0,103.0,100.0,13.4,1505.2,328.2,-0.7,1.8,2471.342,13.29,0.024,109.2
2023-04-16T01:22:03,42.805,6.029,-0.002,0.005,-0.01,103.0,104.0,102.0,13.4,1505.2,335.2,-0.8,1.8,2471.303,13.29,0.005,338.2
2023-04-16T01:25:03,42.805,6.029,0.016,-0.001,-0.007,102.0,103.0,101.0,13.4,1505.2,342.2,-0.8,1.9,2471.301,13.29,0.016,93.6
2023-04-16T01:28:03,42.805,6.029,0.042,-0.032,-0.009,104.0,103.0,99.0,13.4,1505.2,338.3,-0.8,1.8,2471.275,13.29,0.052,127.3
2023-04-16T01:31:03,42.805,6.029,0.037,-0.01,-0.014,102.0,104.0,101.0,13.4,1505.2,334.4,-0.8,1.8,2471.312,13.29,0.038,105.1
2023-04-16T01:34:03,42.805,6.029,0.033,-0.035,-0.026,103.0,103.0,101.0,13.3,1505.2,338.0,-0.8,1.8,2471.28,13.29,0.048,136.7
2023-04-16T01:37:03,42.805,6.029,0.023,-0.007,-0.029,102.0,103.0,102.0,13.4,1505.2,337.6,-0.8,1.8,2471.327,13.29,0.024,106.9
2023-04-16T01:40:03,42.805,6.029,0.021,-0.019,-0.036,102.0,103.0,102.0,13.4,1505.2,334.2,-0.8,1.8,2471.322,13.29,0.028,132.1
2023-04-16T01:43:03,42.805,6.029,0.047,-0.029,-0.029,103.0,103.0,101.0,13.4,1505.2,331.6,-0.8,1.8,2471.258,13.29,0.055,121.7
2023-04-16T01:46:03,42.805,6.029,0.026,-0.011,-0.037,103.0,102.0,101.0,13.4,1505.2,343.3,-0.8,1.8,2471.29,13.29,0.028,112.9
2023-04-16T01:49:03,42.805,6.029,0.025,-0.032,-0.005,104.0,100.0,101.0,13.4,1505.2,344.7,-0.8,1.8,2471.307,13.29,0.04,142.0
2023-04-16T01:52:03,42.805,6.029,0.028,-0.005,-0.017,103.0,104.0,101.0,13.4,1505.2,322.2,-0.8,1.8,2471.316,13.29,0.028,100.1
2023-04-16T01:55:03,42.805,6.029,0.031,-0.029,-0.029,102.0,103.0,102.0,13.3,1505.2,338.3,-0.7,1.8,2471.306,13.29,0.042,133.1
2023-04-16T01:58:03,42.805,6.029,0.022,-0.01,-0.029,103.0,101.0,102.0,13.4,1505.2,328.7,-0.8,1.8,2471.307,13.29,0.024,114.4
2023-04-16T02:04:03,42.805,6.029,0.021,0.008,-0.024,103.0,103.0,100.0,13.4,1505.2,322.6,-0.8,1.9,2471.388,13.28,0.022,69.1
2023-04-16T02:07:03,42.805,6.029,0.002,-0.04,-0.051,103.0,103.0,100.0,13.4,1505.2,334.8,-0.8,1.8,2471.336,13.28,0.04,177.1
2023-04-16T02:10:03,42.805,6.029,0.021,-0.017,-0.018,104.0,102.0,102.0,13.4,1505.2,320.7,-0.8,1.8,2471.37,13.29,0.027,129.0
2023-04-16T02:13:03,42.805,6.029,0.025,-0.005,-0.015,102.0,103.0,101.0,13.3,1505.2,330.1,-0.8,1.8,2471.357,13.29,0.025,101.3
2023-04-16T02:16:03,42.805,6.029,0.023,-0.006,-0.02,103.0,103.0,101.0,13.4,1505.2,332.9,-0.8,1.8,2471.373,13.29,0.023,104.6
2023-04-16T02:19:03,42.805,6.029,0.017,-0.02,-0.017,103.0,102.0,102.0,13.3,1505.2,327.7,-0.8,1.8,2471.341,13.29,0.026,139.6
2023-04-16T02:22:03,42.805,6.029,0.016,-0.017,-0.011,103.0,104.0,101.0,13.4,1505.2,330.8,-0.7,1.8,2471.341,13.29,0.023,136.7
2023-04-16T02:25:03,42.805,6.029,0.028,-0.023,-0.031,103.0,103.0,101.0,13.4,1505.2,334.9,-0.8,1.8,2471.357,13.29,0.036,129.4
2023-04-16T02:28:03,42.805,6.029,0.021,0.006,-0.018,102.0,103.0,101.0,13.4,1505.2,323.2,-0.7,1.8,2471.357,13.29,0.021,74.1
2023-04-16T02:31:03,42.805,6.029,0.0,-0.017,-0.022,103.0,102.0,101.0,13.3,1505.2,331.9,-0.7,1.8,2471.341,13.29,0.017,180.0
2023-04-16T02:34:03,42.805,6.029,0.035,-0.028,-0.038,102.0,103.0,101.0,13.4,1505.2,326.5,-0.8,1.8,2471.365,13.29,0.044,128.7
2023-04-16T02:37:03,42.805,6.029,0.027,-0.009,-0.018,103.0,103.0,101.0,13.4,1505.2,331.4,-0.8,1.8,2471.323,13.29,0.028,108.4
2023-04-16T02:40:03,42.805,6.029,0.025,0.0,-0.028,101.0,104.0,102.0,13.4,1505.2,328.5,-0.8,1.8,2471.37,13.29,0.025,90.0
2023-04-16T02:43:03,42.805,6.029,-0.002,-0.009,-0.037,102.0,103.0,101.0,13.3,1505.2,340.8,-0.8,1.8,2471.381,13.29,0.009,192.5
2023-04-16T02:46:03,42.805,6.029,0.028,-0.03,-0.037,103.0,103.0,100.0,13.4,1505.2,320.3,-0.8,1.8,2471.372,13.29,0.041,137.0
2023-04-16T02:49:03,42.805,6.029,-0.001,-0.018,0.002,103.0,104.0,100.0,13.3,1505.2,338.3,-0.7,1.8,2471.346,13.29,0.018,183.2
2023-04-16T02:52:03,42.805,6.029,0.004,-0.003,-0.007,102.0,102.0,102.0,13.4,1505.2,342.8,-0.8,1.8,2471.368,13.29,0.005,126.9
2023-04-16T02:55:03,42.805,6.029,0.023,0.004,-0.009,101.0,103.0,102.0,13.4,1505.2,331.0,-0.8,1.8,2471.377,13.29,0.023,80.1
2023-04-16T02:58:03,42.805,6.029,0.002,-0.011,-0.029,104.0,103.0,101.0,13.4,1505.2,340.2,-0.8,1.8,2471.389,13.29,0.011,169.7
2023-04-16T03:04:03,42.805,6.029,0.0,-0.019,-0.027,103.0,103.0,100.0,13.3,1505.2,322.2,-0.8,1.8,2471.428,13.28,0.019,180.0
2023-04-16T03:07:03,42.805,6.029,0.011,-0.001,-0.006,103.0,104.0,102.0,13.3,1505.2,325.3,-0.8,1.8,2471.456,13.29,0.011,95.2
2023-04-16T03:10:03,42.805,6.029,0.005,0.013,-0.051,105.0,102.0,101.0,13.4,1505.2,324.0,-0.8,1.8,2471.442,13.29,0.013,21.0
2023-04-16T03:13:03,42.805,6.029,0.005,-0.009,-0.032,104.0,102.0,101.0,13.3,1505.2,323.8,-0.8,1.8,2471.431,13.29,0.01,150.9
2023-04-16T03:16:03,42.805,6.029,0.0,0.012,0.038,102.0,104.0,101.0,13.4,1505.2,341.5,-0.8,1.8,2471.399,13.29,0.012,0.0
2023-04-16T03:19:03,42.805,6.029,-0.021,-0.004,-0.026,103.0,102.0,100.0,13.4,1505.2,325.1,-0.8,1.8,2471.391,13.29,0.021,259.2
2023-04-16T03:22:03,42.805,6.029,0.006,0.002,-0.015,103.0,103.0,101.0,13.4,1505.2,331.9,-0.7,1.8,2471.386,13.29,0.006,71.6
2023-04-16T03:25:03,42.805,6.029,0.026,0.004,0.0,102.0,102.0,103.0,13.3,1505.2,329.4,-0.8,1.8,2471.407,13.29,0.026,81.3
2023-04-16T03:28:03,42.805,6.029,0.001,-0.01,-0.031,102.0,102.0,102.0,13.3,1505.2,345.2,-0.8,1.8,2471.394,13.29,0.01,174.3
2023-04-16T03:31:03,42.805,6.029,0.021,0.003,0.0,104.0,101.0,101.0,13.4,1505.2,342.7,-0.7,1.8,2471.345,13.29,0.021,81.9
2023-04-16T03:34:03,42.805,6.029,-0.004,0.004,-0.021,105.0,104.0,100.0,13.3,1505.2,316.9,-0.8,1.8,2471.414,13.29,0.005,315.0
2023-04-16T03:37:03,42.805,6.029,0.015,-0.01,0.011,103.0,102.0,102.0,13.4,1505.2,334.2,-0.8,1.8,2471.401,13.29,0.018,123.7
2023-04-16T03:40:03,42.805,6.029,0.017,-0.013,-0.01,104.0,103.0,101.0,13.4,1505.2,336.3,-0.7,1.8,2471.399,13.29,0.021,127.4
2023-04-16T03:43:03,42.805,6.029,0.005,-0.007,-0.01,104.0,101.0,101.0,13.4,1505.2,334.4,-0.8,1.8,2471.435,13.29,0.008,144.5
2023-04-16T03:46:03,42.805,6.029,0.026,-0.003,-0.026,103.0,103.0,101.0,13.3,1505.2,328.8,-0.7,1.9,2471.38,13.29,0.026,96.6
2023-04-16T03:49:03,42.805,6.029,0.014,0.005,-0.025,102.0,101.0,102.0,13.4,1505.2,333.9,-0.8,1.8,2471.391,13.29,0.014,70.4
2023-04-16T03:52:03,42.805,6.029,0.008,-0.012,-0.014,102.0,105.0,102.0,13.4,1505.2,344.6,-0.7,1.8,2471.379,13.29,0.014,146.3
2023-04-16T03:55:03,42.805,6.029,0.019,-0.008,-0.01,103.0,102.0,102.0,13.4,1505.2,327.0,-0.8,1.8,2471.44,13.29,0.02,112.8
2023-04-16T03:58:03,42.805,6.029,0.037,-0.005,-0.021,103.0,104.0,101.0,13.4,1505.2,332.6,-0.8,1.8,2471.391,13.29,0.037,97.7
2023-04-16T04:04:03,42.805,6.029,0.007,-0.008,-0.035,104.0,101.0,101.0,13.4,1505.2,335.8,-0.8,1.8,2471.435,13.28,0.01,138.8
2023-04-16T04:07:03,42.805,6.029,0.017,0.016,0.003,103.0,103.0,101.0,13.3,1505.2,335.2,-0.8,1.8,2471.439,13.29,0.023,46.7
2023-04-16T04:10:03,42.805,6.029,0.037,-0.008,-0.011,103.0,103.0,102.0,13.4,1505.2,334.8,-0.8,1.8,2471.415,13.29,0.037,102.2
2023-04-16T04:13:03,42.805,6.029,0.021,0.001,-0.013,101.0,102.0,102.0,13.4,1505.2,327.1,-0.8,1.8,2471.43,13.29,0.021,87.3
2023-04-16T04:16:03,42.805,6.029,0.013,-0.002,-0.022,103.0,102.0,102.0,13.4,1505.2,319.1,-0.8,1.8,2471.419,13.29,0.013,98.7
2023-04-16T04:19:03,42.805,6.029,0.032,-0.002,-0.03,103.0,102.0,102.0,13.4,1505.2,332.4,-0.8,1.8,2471.403,13.29,0.032,93.6
2023-04-16T04:22:03,42.805,6.029,0.021,0.0,-0.015,105.0,103.0,101.0,13.3,1505.2,324.5,-0.8,1.8,2471.396,13.29,0.021,90.0
2023-04-16T04:25:03,42.805,6.029,0.029,0.005,0.003,102.0,103.0,102.0,13.3,1505.2,329.2,-0.7,1.8,2471.414,13.29,0.029,80.2
2023-04-16T04:28:03,42.805,6.029,0.047,-0.019,-0.015,101.0,104.0,101.0,13.3,1505.2,323.9,-0.8,1.8,2471.399,13.29,0.05,112.0
2023-04-16T04:31:03,42.805,6.029,0.007,0.004,-0.017,102.0,102.0,101.0,13.3,1505.2,327.7,-0.7,1.8,2471.391,13.29,0.008,60.3
2023-04-16T04:34:03,42.805,6.029,0.004,-0.005,-0.037,103.0,104.0,101.0,13.3,1505.2,342.1,-0.8,1.8,2471.411,13.29,0.006,141.3
2023-04-16T04:37:03,42.805,6.029,0.022,0.006,-0.015,102.0,102.0,101.0,13.3,1505.2,340.6,-0.8,1.8,2471.381,13.29,0.022,74.7
2023-04-16T04:40:03,42.805,6.029,0.041,0.0,-0.013,103.0,102.0,102.0,13.4,1505.2,327.0,-0.8,1.8,2471.377,13.29,0.041,90.0
2023-04-16T04:43:03,42.805,6.029,0.041,-0.003,-0.006,103.0,101.0,102.0,13.4,1505.2,329.6,-0.8,1.8,2471.365,13.29,0.041,94.2
2023-04-16T04:46:03,42.805,6.029,0.011,-0.012,-0.056,103.0,102.0,101.0,13.3,1505.2,331.5,-0.8,1.8,2471.391,13.29,0.016,137.5
2023-04-16T04:49:03,42.805,6.029,0.009,0.005,0.003,102.0,104.0,100.0,13.4,1505.2,338.4,-0.8,1.8,2471.395,13.29,0.01,60.9
2023-04-16T04:52:03,42.805,6.029,0.025,0.002,0.007,103.0,102.0,101.0,13.4,1505.2,325.1,-0.8,1.8,2471.359,13.29,0.025,85.4
2023-04-16T04:55:03,42.805,6.029,0.004,0.0,-0.024,104.0,102.0,101.0,13.4,1505.2,337.3,-0.7,1.8,2471.392,13.29,0.004,90.0
2023-04-16T04:58:03,42.805,6.029,0.001,0.009,0.011,105.0,104.0,100.0,13.4,1505.2,317.4,-0.7,1.8,2471.384,13.29,0.009,6.3
2023-04-16T05:04:03,42.805,6.029,0.023,-0.008,-0.023,103.0,103.0,101.0,13.3,1505.2,337.3,-0.8,1.8,2471.423,13.29,0.024,109.2
2023-04-16T05:07:03,42.805,6.029,0.03,-0.032,-0.013,104.0,104.0,103.0,13.4,1505.2,331.8,-0.8,1.8,2471.415,13.29,0.043,136.9
2023-04-16T05:10:03,42.805,6.029,0.005,0.008,-0.037,104.0,102.0,101.0,13.4,1505.2,334.9,-0.8,1.8,2471.396,13.29,0.009,32.0
2023-04-16T05:13:03,42.805,6.029,0.019,-0.006,-0.033,104.0,103.0,101.0,13.4,1505.2,342.5,-0.8,1.8,2471.434,13.29,0.019,107.5
2023-04-16T05:16:03,42.805,6.029,0.009,0.01,-0.002,101.0,104.0,102.0,13.3,1505.2,342.8,-0.7,1.8,2471.412,13.29,0.013,42.0
2023-04-16T05:19:03,42.805,6.029,0.006,0.001,-0.021,103.0,102.0,102.0,13.3,1505.2,324.4,-0.8,1.8,2471.384,13.29,0.006,80.5
2023-04-16T05:22:03,42.805,6.029,-0.004,0.004,-0.059,103.0,104.0,101.0,13.4,1505.2,336.1,-0.8,1.8,2471.384,13.29,0.005,315.0
2023-04-16T05:25:03,42.805,6.029,0.037,-0.042,-0.063,102.0,102.0,101.0,13.4,1505.2,337.4,-0.8,1.8,2471.393,13.29,0.055,138.6
2023-04-16T05:28:03,42.805,6.029,0.02,0.009,-0.014,103.0,103.0,101.0,13.3,1505.2,328.6,-0.8,1.8,2471.367,13.29,0.021,65.8
2023-04-16T05:31:03,42.805,6.029,0.028,-0.021,-0.04,101.0,103.0,101.0,13.4,1505.2,337.0,-0.7,1.8,2471.405,13.29,0.035,126.9
2023-04-16T05:34:03,42.805,6.029,0.017,-0.011,-0.029,103.0,101.0,100.0,13.4,1505.2,345.2,-0.8,1.8,2471.369,13.29,0.02,122.9
2023-04-16T05:37:03,42.805,6.029,0.016,-0.014,-0.039,103.0,102.0,101.0,13.4,1505.2,323.4,-0.8,1.8,2471.342,13.29,0.021,131.2
2023-04-16T05:40:03,42.805,6.029,0.028,-0.007,-0.018,103.0,102.0,101.0,13.4,1505.2,328.1,-0.8,1.8,2471.395,13.29,0.028,104.0
2023-04-16T05:43:03,42.805,6.029,0.034,-0.009,0.001,102.0,103.0,101.0,13.3,1505.2,333.9,-0.8,1.8,2471.379,13.29,0.035,104.8
2023-04-16T05:46:03,42.805,6.029,0.015,-0.003,-0.046,102.0,103.0,101.0,13.4,1505.2,317.3,-0.8,1.8,2471.425,13.29,0.015,101.3
2023-04-16T05:49:03,42.805,6.029,0.018,0.006,0.011,102.0,103.0,101.0,13.4,1505.2,329.0,-0.8,1.8,2471.403,13.29,0.018,71.6
2023-04-16T05:52:03,42.805,6.029,0.03,0.006,-0.006,102.0,101.0,102.0,13.4,1505.2,343.3,-0.8,1.8,2471.368,13.29,0.03,78.7
2023-04-16T05:55:03,42.805,6.029,0.028,-0.027,-0.059,104.0,101.0,101.0,13.4,1505.2,320.8,-0.8,1.8,2471.387,13.29,0.038,134.0
2023-04-16T05:58:03,42.805,6.029,0.036,0.007,0.019,104.0,104.0,100.0,13.3,1505.2,320.5,-0.8,1.8,2471.348,13.29,0.036,79.0
2023-04-16T06:04:03,42.805,6.029,0.001,0.021,0.008,102.0,103.0,100.0,13.4,1505.2,321.3,-0.8,1.8,2471.421,13.28,0.021,2.7
2023-04-16T06:07:03,42.805,6.029,0.024,-0.003,-0.003,102.0,102.0,101.0,13.4,1505.2,335.8,-0.8,1.8,2471.415,13.29,0.024,97.1
2023-04-16T06:10:03,42.805,6.029,0.012,-0.01,-0.034,101.0,103.0,101.0,13.3,1505.2,341.2,-0.7,1.8,2471.376,13.29,0.015,129.8
2023-04-16T06:13:03,42.805,6.029,0.02,0.008,-0.016,102.0,102.0,101.0,13.3,1505.2,334.3,-0.8,1.8,2471.385,13.29,0.021,68.2
2023-04-16T06:16:03,42.805,6.029,0.008,-0.002,-0.024,99.0,102.0,102.0,13.3,1505.2,325.8,-0.8,1.8,2471.368,13.29,0.008,104.0
2023-04-16T06:19:03,42.805,6.029,0.02,-0.019,-0.02,102.0,103.0,101.0,13.4,1505.2,333.8,-0.8,1.9,2471.385,13.29,0.027,133.5
2023-04-16T06:22:03,42.805,6.029,0.038,-0.007,-0.012,103.0,101.0,101.0,13.4,1505.2,327.4,-0.7,1.8,2471.339,13.29,0.038,100.4
2023-04-16T06:25:03,42.805,6.029,0.025,-0.025,-0.017,103.0,103.0,99.0,13.3,1505.2,326.5,-0.8,1.8,2471.357,13.29,0.035,135.0
2023-04-16T06:28:03,42.805,6.029,0.016,0.011,-0.031,100.0,102.0,101.0,13.4,1505.2,323.1,-0.8,1.8,2471.388,13.29,0.019,55.5
2023-04-16T06:31:03,42.805,6.029,0.014,0.003,-0.003,104.0,102.0,101.0,13.3,1505.2,324.1,-0.8,1.8,2471.378,13.29,0.014,77.9
2023-04-16T06:34:03,42.805,6.029,0.026,0.019,0.005,103.0,103.0,100.0,13.3,1505.2,321.4,-0.7,1.8,2471.354,13.29,0.032,53.8
2023-04-16T06:37:03,42.805,6.029,0.03,-0.002,0.015,104.0,100.0,102.0,13.3,1505.2,316.2,-0.8,1.8,2471.349,13.29,0.03,93.8
2023-04-16T06:40:03,42.805,6.029,-0.019,0.034,-0.011,100.0,101.0,102.0,13.3,1505.2,333.8,-0.7,1.8,2471.365,13.29,0.038,330.8
2023-04-16T06:43:03,42.805,6.029,0.032,0.0,-0.038,102.0,101.0,101.0,13.4,1505.2,327.0,-0.8,1.8,2471.324,13.29,0.032,90.0
2023-04-16T06:46:03,42.805,6.029,0.01,-0.003,-0.018,102.0,103.0,101.0,13.4,1505.2,340.1,-0.7,1.8,2471.336,13.29,0.01,106.7
2023-04-16T06:49:03,42.805,6.029,0.015,0.005,-0.01,103.0,102.0,101.0,13.4,1505.2,318.5,-0.8,1.8,2471.331,13.29,0.015,71.6
2023-04-16T06:52:03,42.805,6.029,0.006,-0.004,-0.04,102.0,104.0,102.0,13.4,1505.2,326.7,-0.8,1.8,2471.35,13.29,0.007,123.7
2023-04-16T06:55:03,42.805,6.029,0.017,-0.002,-0.047,103.0,102.0,99.0,13.4,1505.2,329.0,-0.8,1.8,2471.348,13.29,0.017,96.7
2023-04-16T06:58:03,42.805,6.029,-0.003,0.004,-0.039,106.0,100.0,101.0,13.4,1505.2,339.0,-0.8,1.8,2471.336,13.29,0.005,323.1
2023-04-16T07:04:03,42.805,6.029,-0.006,0.011,0.003,103.0,102.0,100.0,13.4,1505.2,320.9,-0.8,1.8,2471.363,13.29,0.012,331.4
2023-04-16T07:07:03,42.805,6.029,0.008,0.002,-0.02,102.0,103.0,101.0,13.4,1505.2,333.4,-0.7,1.8,2471.396,13.29,0.008,76.0
2023-04-16T07:10:03,42.805,6.029,0.009,0.011,-0.008,102.0,102.0,102.0,13.4,1505.2,339.3,-0.8,1.9,2471.365,13.29,0.014,39.3
2023-04-16T07:13:03,42.805,6.029,0.017,0.002,-0.028,101.0,101.0,102.0,13.3,1505.2,328.3,-0.8,1.9,2471.337,13.29,0.017,83.3
2023-04-16T07:16:03,42.805,6.029,0.047,-0.017,-0.003,104.0,103.0,101.0,13.4,1505.2,331.0,-0.8,1.8,2471.325,13.29,0.049,109.9
2023-04-16T07:19:03,42.805,6.029,0.005,0.009,0.0,102.0,103.0,100.0,13.4,1505.2,328.1,-0.8,1.8,2471.352,13.29,0.01,29.1
2023-04-16T07:22:03,42.805,6.029,0.023,-0.001,-0.005,103.0,102.0,100.0,13.4,1505.2,326.5,-0.8,1.8,2471.301,13.29,0.023,92.5
2023-04-16T07:25:03,42.805,6.029,0.028,0.011,0.008,102.0,102.0,101.0,13.3,1505.2,342.2,-0.8,1.8,2471.307,13.29,0.03,68.6
2023-04-16T07:28:03,42.805,6.029,-0.006,-0.006,-0.03,101.0,103.0,100.0,13.4,1505.2,332.4,-0.8,1.8,2471.349,13.29,0.008,225.0
2023-04-16T07:31:03,42.805,6.029,0.008,0.006,-0.023,104.0,102.0,101.0,13.4,1505.2,342.5,-0.7,1.8,2471.244,13.29,0.01,53.1
2023-04-16T07:34:03,42.805,6.029,0.005,0.0,-0.021,102.0,104.0,101.0,13.4,1505.2,328.3,-0.8,1.8,2471.326,13.29,0.005,90.0
2023-04-16T07:37:03,42.805,6.029,0.015,0.0,-0.018,102.0,102.0,101.0,13.4,1505.2,321.4,-0.8,1.8,2471.314,13.29,0.015,90.0
2023-04-16T07:40:03,42.805,6.029,0.018,-0.009,-0.022,102.0,101.0,103.0,13.4,1505.2,330.9,-0.8,1.8,2471.31,13.29,0.02,116.6
2023-04-16T07:43:03,42.805,6.029,0.009,0.002,-0.027,102.0,101.0,101.0,13.4,1505.2,334.4,-0.7,1.8,2471.31,13.29,0.009,77.5
2023-04-16T07:46:03,42.805,6.029,0.001,-0.006,-0.027,103.0,104.0,101.0,13.4,1505.2,323.1,-0.8,1.8,2471.28,13.29,0.006,170.5
2023-04-16T07:49:03,42.805,6.029,0.038,-0.018,-0.019,101.0,101.0,100.0,13.4,1505.2,327.5,-0.8,1.8,2471.266,13.29,0.042,115.3
2023-04-16T07:52:03,42.805,6.029,0.009,0.007,-0.012,101.0,104.0,101.0,13.3,1505.2,329.0,-0.8,1.8,2471.297,13.29,0.011,52.1
2023-04-16T07:55:03,42.805,6.029,-0.005,0.011,-0.04,101.0,101.0,100.0,13.4,1505.2,337.2,-0.7,1.9,2471.299,13.29,0.012,335.6
2023-04-16T07:58:03,42.805,6.029,0.031,-0.007,-0.033,103.0,103.0,100.0,13.4,1505.2,334.8,-0.8,1.8,2471.289,13.29,0.031,102.7
2023-04-16T08:04:03,42.805,6.029,-0.027,0.015,-0.045,103.0,102.0,102.0,13.4,1505.2,339.4,-0.8,1.8,2471.357,13.29,0.03,299.1
2023-04-16T08:07:03,42.805,6.029,0.013,0.002,-0.007,103.0,102.0,102.0,13.4,1505.2,332.5,-0.7,1.8,2471.305,13.29,0.013,81.3
2023-04-16T08:10:03,42.805,6.029,0.021,0.006,-0.033,102.0,102.0,100.0,13.4,1505.2,321.9,-0.8,1.8,2471.315,13.29,0.021,74.1
2023-04-16T08:13:03,42.805,6.029,0.005,-0.008,-0.038,103.0,105.0,105.0,13.4,1505.2,342.1,-0.7,1.9,2471.311,13.29,0.009,148.0
2023-04-16T08:16:03,42.805,6.029,0.01,0.016,-0.024,102.0,105.0,100.0,13.3,1505.2,333.4,-0.7,1.9,2471.271,13.29,0.018,32.0
2023-04-16T08:19:03,42.805,6.029,-0.007,-0.01,-0.029,102.0,103.0,104.0,13.3,1505.2,323.8,-0.8,1.8,2471.295,13.29,0.012,215.0
2023-04-16T08:22:03,42.805,6.029,0.002,0.013,-0.021,104.0,103.0,100.0,13.4,1505.2,341.9,-0.8,1.9,2471.288,13.29,0.013,8.7
2023-04-16T08:25:03,42.805,6.029,0.003,0.009,-0.021,102.0,103.0,100.0,13.3,1505.2,330.5,-0.8,1.8,2471.29,13.29,0.009,18.4
2023-04-16T08:28:03,42.805,6.029,0.019,-0.001,0.007,102.0,102.0,101.0,13.3,1505.2,329.3,-0.8,1.8,2471.266,13.29,0.019,93.0
2023-04-16T08:31:03,42.805,6.029,0.01,0.022,0.006,102.0,103.0,102.0,13.4,1505.2,324.7,-0.8,1.8,2471.247,13.29,0.024,24.4
2023-04-16T08:34:03,42.805,6.029,0.012,0.012,-0.021,103.0,103.0,100.0,13.3,1505.2,329.4,-0.8,1.8,2471.234,13.29,0.016,45.0
2023-04-16T08:37:03,42.805,6.029,-0.01,0.007,-0.04,103.0,103.0,101.0,13.3,1505.2,319.3,-0.7,1.8,2471.249,13.29,0.012,305.0
2023-04-16T08:40:03,42.805,6.029,-0.002,0.031,-0.015,102.0,101.0,100.0,13.3,1505.2,334.4,-0.8,1.8,2471.246,13.29,0.031,356.3
2023-04-16T08:43:03,42.805,6.029,0.015,0.0,-0.006,103.0,101.0,101.0,13.4,1505.2,341.9,-0.8,1.8,2471.252,13.29,0.015,90.0
2023-04-16T08:46:03,42.805,6.029,0.012,-0.012,-0.027,101.0,101.0,103.0,13.4,1505.2,331.9,-0.8,1.8,2471.251,13.29,0.016,135.0
2023-04-16T08:49:03,42.805,6.029,0.02,-0.022,-0.04,102.0,102.0,101.0,13.4,1505.2,327.4,-0.8,1.9,2471.245,13.29,0.029,137.7
2023-04-16T08:52:03,42.805,6.029,0.019,0.009,-0.016,101.0,102.0,100.0,13.4,1505.2,335.3,-0.7,1.8,2471.234,13.29,0.021,64.7
2023-04-16T08:55:03,42.805,6.029,0.0,0.022,-0.041,103.0,103.0,100.0,13.4,1505.2,333.4,-0.8,1.8,2471.261,13.29,0.022,0.0
2023-04-16T08:58:03,42.805,6.029,0.004,0.005,-0.025,102.0,103.0,100.0,13.3,1505.2,319.2,-0.8,1.8,2471.261,13.29,0.006,38.7
2023-04-16T09:04:03,42.805,6.029,0.0,0.016,-0.015,104.0,102.0,100.0,13.4,1505.2,337.5,-0.8,1.8,2471.238,13.29,0.016,0.0
2023-04-16T09:07:03,42.805,6.029,-0.018,0.023,-0.039,101.0,103.0,101.0,13.4,1505.2,344.0,-0.8,1.8,2471.26,13.29,0.029,322.0
2023-04-16T09:10:03,42.805,6.029,0.001,0.008,-0.006,102.0,103.0,100.0,13.4,1505.2,329.2,-0.8,1.8,2471.228,13.29,0.008,7.1
2023-04-16T09:13:03,42.805,6.029,0.03,-0.003,-0.034,102.0,104.0,100.0,13.4,1505.2,340.4,-0.7,1.8,2471.24,13.29,0.03,95.7
2023-04-16T09:16:03,42.805,6.029,0.0,0.016,0.015,100.0,102.0,101.0,13.3,1505.2,317.5,-0.8,1.8,2471.271,13.29,0.016,0.0
2023-04-16T09:19:03,42.805,6.029,0.006,0.014,-0.021,103.0,105.0,100.0,13.4,1505.2,320.7,-0.8,1.8,2471.208,13.3,0.015,23.2
2023-04-16T09:22:03,42.805,6.029,-0.001,0.021,-0.031,102.0,101.0,102.0,13.3,1505.2,322.1,-0.8,1.8,2471.244,13.3,0.021,357.3
2023-04-16T09:25:03,42.805,6.029,0.005,0.018,-0.009,102.0,101.0,100.0,13.3,1505.2,332.4,-0.8,1.9,2471.217,13.29,0.018,15.5
2023-04-16T09:28:03,42.805,6.029,0.017,-0.006,-0.04,103.0,101.0,101.0,13.4,1505.2,335.2,-0.8,1.8,2471.246,13.29,0.018,109.4
2023-04-16T09:31:03,42.805,6.029,0.005,0.013,-0.016,102.0,103.0,100.0,13.4,1505.2,323.1,-0.8,1.9,2471.227,13.29,0.013,21.0
2023-04-16T09:34:03,42.805,6.029,0.002,0.008,-0.019,102.0,102.0,100.0,13.3,1505.2,334.8,-0.7,1.8,2471.19,13.29,0.008,14.0
2023-04-16T09:37:03,42.805,6.029,0.004,0.019,-0.004,103.0,101.0,101.0,13.4,1505.2,342.6,-0.7,1.8,2471.2,13.29,0.019,11.9
2023-04-16T09:40:03,42.805,6.029,0.002,0.022,0.015,101.0,102.0,101.0,13.4,1505.2,342.8,-0.8,1.8,2471.204,13.29,0.022,5.2
2023-04-16T09:43:03,42.805,6.029,0.018,0.014,-0.047,103.0,103.0,100.0,13.3,1505.2,341.2,-0.8,1.8,2471.206,13.29,0.022,52.1
2023-04-16T09:46:03,42.805,6.029,0.019,0.02,-0.032,102.0,102.0,100.0,13.4,1505.2,344.6,-0.8,1.8,2471.217,13.29,0.027,43.5
2023-04-16T09:49:03,42.805,6.029,0.025,0.014,-0.014,102.0,102.0,101.0,13.3,1505.2,332.5,-0.8,1.9,2471.181,13.29,0.028,60.7
2023-04-16T09:52:03,42.805,6.029,0.018,0.03,0.0,103.0,101.0,101.0,13.4,1505.2,320.3,-0.8,1.8,2471.176,13.29,0.034,31.0
2023-04-16T09:55:02,42.805,6.029,0.011,0.005,-0.013,103.0,101.0,102.0,13.4,1505.2,334.2,-0.8,1.8,2471.213,13.29,0.012,65.6
2023-04-16T09:58:02,42.805,6.029,0.016,0.01,-0.008,104.0,103.0,100.0,13.4,1505.2,328.3,-0.7,1.8,2471.189,13.29,0.018,58.0